{"data":{"norad_id":45542,"intl_designator":"2020-025M","name":"STARLINK-1371","alt_names":[],"object_type":"PAYLOAD","status":"ACTIVE","operator":null,"country":"US","launch_date":"2020-04-22","launch_site_code":"AFETR","launch_vehicle":null,"mission":null,"orbit_class":"UNKNOWN","rcs_meters":null,"size_class":null,"mass_kg":null,"dimensions":null,"purposes":["comms"],"wikipedia_slug":null,"has_3d_model":false,"image_url":null,"decayed_at":null,"tle_current":{"epoch":"2026-05-25T02:43:15.027168Z","epoch_age_seconds":58495,"freshness":"FRESH","line1":"1 45542U 20025M   26145.11336837  .00082754  00000+0  10252-2 0  9996","line2":"2 45542  53.0444  80.7694 0006283  73.0129 287.1571 15.59358299337210","mean_motion":15.59358299,"eccentricity":0.0006283,"inclination_deg":53.0444,"raan_deg":80.7694,"arg_perigee_deg":73.0129,"mean_anomaly_deg":287.1571,"bstar":0.0010252,"rev_number":33721,"period_min":92.345678406525,"perigee_km":385.26099424678,"apogee_km":393.76522337351,"semimajor_km":6767.6501088101,"source":"CELESTRAK","updated_at":"2026-05-25T13:38:16.421943Z"}}}